IZ1GCT Weather Reports


Display with metric or nautical units.
time (UTC)temp
F
wind
direction
speed
MPH
gust
MPH
rain 1hr
in
rain 24hr
in
rain mn
in
humidity
%
barometer
mb
20260503215049 56 158 0.0 0.0 0.00 0.00 0.00 73 1020.8
20260503214548 56 158 0.0 0.0 0.00 0.00 0.00 73 1020.8
20260503214048 56 158 0.0 0.0 0.00 0.00 0.00 73 1020.8
20260503213549 56 158 0.0 0.0 0.00 0.00 0.00 73 1020.9
20260503213049 56 158 1.0 2.0 0.00 0.00 0.00 73 1020.9
20260503212548 56 158 0.0 0.0 0.00 0.00 0.00 72 1020.9
20260503212049 57 158 0.0 0.0 0.00 0.00 0.00 71 1020.8
20260503211549 57 144 0.0 0.0 0.00 0.00 0.00 71 1020.8
20260503211048 57 135 0.0 1.0 0.00 0.00 0.00 71 1020.8
20260503210548 57 135 0.0 0.0 0.00 0.00 0.00 71 1020.7
20260503210049 57 158 2.0 3.0 0.00 0.00 0.00 71 1020.7
20260503205548 57 158 3.0 5.0 0.00 0.00 0.00 71 1020.7
20260503205048 57 158 1.0 2.0 0.00 0.00 0.00 71 1020.6
20260503204549 57 158 0.0 1.0 0.00 0.00 0.00 71 1020.6
20260503204049 57 135 0.0 0.0 0.00 0.00 0.00 70 1020.6
20260503203548 57 135 0.0 0.0 0.00 0.00 0.00 70 1020.5
20260503203048 58 155 0.0 1.0 0.00 0.00 0.00 68 1020.6
20260503202549 58 158 2.0 3.0 0.00 0.00 0.00 69 1020.5
20260503202048 58 158 2.0 3.0 0.00 0.00 0.00 70 1020.3
20260503201548 57 158 3.0 5.0 0.00 0.00 0.00 71 1020.4
20260503201048 57 158 1.0 3.0 0.00 0.00 0.00 71 1020.3
20260503200549 58 135 0.0 0.0 0.00 0.00 0.00 71 1020.4
20260503200049 58 135 0.0 0.0 0.00 0.00 0.00 70 1020.3
20260503195549 58 135 0.0 0.0 0.00 0.00 0.00 70 1020.3
20260503195048 58 135 1.0 2.0 0.00 0.00 0.00 70 1020.3
20260503194548 59 158 0.0 0.0 0.00 0.00 0.00 69 1020.2
20260503194049 59 158 0.0 0.0 0.00 0.00 0.00 69 1020.2
20260503193548 59 158 0.0 0.0 0.00 0.00 0.00 69 1020.2
20260503193049 60 158 0.0 0.0 0.00 0.00 0.00 70 1020.3
20260503192549 60 158 0.0 0.0 0.00 0.00 0.00 70 1020.2
20260503192049 60 135 1.0 2.0 0.00 0.00 0.00 69 1020.2
20260503191548 60 135 1.0 2.0 0.00 0.00 0.00 70 1020.3
20260503191048 60 156 3.0 3.0 0.00 0.00 0.00 70 1020.1
20260503190549 61 158 2.0 3.0 0.00 0.00 0.00 70 1020.1
20260503190049 61 158 1.0 2.0 0.00 0.00 0.00 70 1020.0
20260503185548 62 158 1.0 2.0 0.00 0.00 0.00 69 1020.0
20260503185048 62 135 0.0 0.0 0.00 0.00 0.00 68 1020.0
20260503184549 62 135 0.0 1.0 0.00 0.00 0.00 67 1020.0
20260503184049 62 135 0.0 0.0 0.00 0.00 0.00 66 1019.9
20260503183548 62 158 0.0 0.0 0.00 0.00 0.00 67 1019.9
20260503183048 62 158 0.0 1.0 0.00 0.00 0.00 67 1019.8
20260503182549 63 158 1.0 1.0 0.00 0.00 0.00 68 1019.8
20260503182048 63 158 0.0 0.0 0.00 0.00 0.00 68 1019.7
20260503181548 63 158 1.0 1.0 0.00 0.00 0.00 67 1019.6
20260503181047 64 135 0.0 1.0 0.00 0.00 0.00 63 1019.8
20260503180549 64 136 0.0 1.0 0.00 0.00 0.00 63 1019.7
20260503180048 65 158 0.0 1.0 0.00 0.00 0.00 61 1019.8
20260503175547 65 158 0.0 1.0 0.00 0.00 0.00 59 1019.7
20260503175049 65 135 1.0 3.0 0.00 0.00 0.00 55 1019.7
20260503174549 65 135 2.0 3.0 0.00 0.00 0.00 55 1019.7
20260503174048 65 135 1.0 2.0 0.00 0.00 0.00 56 1019.6
20260503173549 65 135 1.0 3.0 0.00 0.00 0.00 59 1019.6
20260503173049 65 135 0.0 1.0 0.00 0.00 0.00 57 1019.7
20260503172548 66 135 1.0 1.0 0.00 0.00 0.00 60 1019.7
20260503172048 66 135 0.0 1.0 0.00 0.00 0.00 59 1019.7
20260503171549 65 158 0.0 0.0 0.00 0.00 0.00 60 1019.8
20260503171048 65 135 0.0 1.0 0.00 0.00 0.00 60 1019.8
20260503170548 66 146 0.0 1.0 0.00 0.00 0.00 60 1019.8
20260503150551 69 147 2.0 3.0 0.00 0.00 0.00 44 1020.3
20260503131049 67 133 5.0 6.0 0.00 0.00 0.00 46 1021.2
20260503130551 67 135 5.0 6.0 0.00 0.00 0.00 45 1021.2
20260503110550 68 135 6.0 10.0 0.00 0.00 0.00 42 1021.2
20260503081550 65 135 2.0 3.0 0.00 0.00 0.00 51 1022.2
20260503081050 66 116 2.0 3.0 0.00 0.00 0.00 52 1022.2
20260503080551 66 118 3.0 5.0 0.00 0.00 0.00 50 1022.0
20260503072549 64 135 2.0 3.0 0.00 0.00 0.00 56 1022.2
20260503072051 63 129 0.0 1.0 0.00 0.00 0.00 63 1022.2
20260503071550 62 135 0.0 0.0 0.00 0.00 0.00 63 1022.1
20260503071049 61 135 0.0 1.0 0.00 0.00 0.00 64 1022.1
20260503070551 61 135 1.0 1.0 0.00 0.00 0.00 63 1022.2
20260503055050 56 138 1.0 2.0 0.00 0.00 0.00 70 1021.9
20260503054550 56 158 1.0 2.0 0.00 0.00 0.00 70 1022.1
20260503054049 56 135 0.0 1.0 0.00 0.00 0.00 69 1022.1
20260503053550 56 135 3.0 5.0 0.00 0.00 0.00 69 1022.1
20260503053049 56 151 1.0 2.0 0.00 0.00 0.00 68 1022.1
20260503052550 55 135 1.0 1.0 0.00 0.00 0.00 68 1022.2
20260503052051 55 135 1.0 2.0 0.00 0.00 0.00 69 1022.3
20260503051550 55 135 2.0 3.0 0.00 0.00 0.00 68 1022.1
20260503051050 54 155 5.0 6.0 0.00 0.00 0.00 72 1022.3
20260503050549 54 143 5.0 6.0 0.00 0.00 0.00 73 1022.3
20260503050050 53 158 3.0 6.0 0.00 0.00 0.00 73 1022.4
20260503045550 53 158 0.0 1.0 0.00 0.00 0.00 73 1022.3
20260503045049 54 135 0.0 0.0 0.00 0.00 0.00 72 1022.4
20260503044551 53 135 1.0 2.0 0.00 0.00 0.00 72 1022.5
20260503044050 53 135 1.0 2.0 0.00 0.00 0.00 72 1022.3
20260503043552 53 158 3.0 6.0 0.00 0.00 0.00 73 1022.2
20260503043050 53 158 3.0 6.0 0.00 0.00 0.00 73 1022.1
20260503042549 53 135 0.0 1.0 0.00 0.00 0.00 73 1022.2
20260503042051 53 135 2.0 3.0 0.00 0.00 0.00 73 1022.3
20260503041550 53 152 3.0 3.0 0.00 0.00 0.00 73 1022.2
20260503041051 53 135 1.0 2.0 0.00 0.00 0.00 72 1022.2
20260503040550 53 156 0.0 0.0 0.00 0.00 0.00 72 1022.3
20260503035551 53 135 0.0 0.0 0.00 0.00 0.00 71 1022.3
20260503035050 53 139 1.0 3.0 0.00 0.00 0.00 71 1022.3
20260503034550 53 158 3.0 3.0 0.00 0.00 0.00 71 1022.4
20260503034051 53 158 5.0 6.0 0.00 0.00 0.00 71 1022.4
20260503033551 53 158 3.0 6.0 0.00 0.00 0.00 72 1022.4
20260503033050 53 135 1.0 2.0 0.00 0.00 0.00 71 1022.5
20260503032551 53 135 1.0 2.0 0.00 0.00 0.00 72 1022.6
20260503032052 52 135 2.0 3.0 0.00 0.00 0.00 72 1022.6
20260503031551 52 158 5.0 6.0 0.00 0.00 0.00 73 1022.7
20260503031050 52 158 2.0 3.0 0.00 0.00 0.00 73 1022.7
20260503030552 52 150 1.0 3.0 0.00 0.00 0.00 72 1022.7
20260503030051 52 135 0.0 0.0 0.00 0.00 0.00 71 1022.8
20260503025551 53 135 1.0 2.0 0.00 0.00 0.00 71 1022.8
20260503025050 53 158 2.0 3.0 0.00 0.00 0.00 70 1022.8
20260503024551 53 158 1.0 3.0 0.00 0.00 0.00 70 1022.9
20260503024051 53 158 5.0 6.0 0.00 0.00 0.00 71 1022.9
20260503023550 52 158 2.0 5.0 0.00 0.00 0.00 70 1022.8
20260503023052 53 158 2.0 3.0 0.00 0.00 0.00 70 1022.9
20260503022551 53 151 1.0 3.0 0.00 0.00 0.00 70 1022.8
20260503022051 53 158 2.0 5.0 0.00 0.00 0.00 70 1022.9
20260503021550 53 158 1.0 3.0 0.00 0.00 0.00 70 1023.0
20260503021052 53 158 2.0 3.0 0.00 0.00 0.00 70 1023.0
20260503020551 53 154 3.0 5.0 0.00 0.00 0.00 70 1022.9
20260503020051 52 135 3.0 5.0 0.00 0.00 0.00 71 1022.8
20260503015551 52 158 2.0 3.0 0.00 0.00 0.00 71 1022.9
20260503015051 52 140 0.0 3.0 0.00 0.00 0.00 71 1022.9
20260503014550 52 149 1.0 3.0 0.00 0.00 0.00 71 1022.8
20260503014052 53 135 1.0 2.0 0.00 0.00 0.00 71 1023.0
20260503013551 52 142 2.0 3.0 0.00 0.00 0.00 71 1022.9
20260503013050 52 158 0.0 1.0 0.00 0.00 0.00 70 1022.9
20260503012550 53 148 1.0 3.0 0.00 0.00 0.00 70 1022.9
20260503012053 53 138 1.0 3.0 0.00 0.00 0.00 70 1022.9
20260503011553 53 145 2.0 3.0 0.00 0.00 0.00 70 1023.0
20260503011052 53 154 2.0 3.0 0.00 0.00 0.00 70 1023.0
20260503010554 53 158 3.0 6.0 0.00 0.00 0.00 70 1023.0
20260503010053 53 158 1.0 3.0 0.00 0.00 0.00 70 1023.1
20260503005552 53 135 2.0 3.0 0.00 0.00 0.00 70 1023.2
20260503005052 54 158 2.0 3.0 0.00 0.00 0.00 70 1023.2
20260503004554 53 135 0.0 0.0 0.00 0.00 0.00 70 1023.3
20260503004053 53 158 3.0 3.0 0.00 0.00 0.00 70 1023.2
20260503003552 53 158 1.0 1.0 0.00 0.00 0.00 70 1023.3
20260503003052 53 158 2.0 3.0 0.00 0.00 0.00 70 1023.3
20260503002553 53 158 1.0 2.0 0.00 0.00 0.00 70 1023.4
20260503002052 54 135 0.0 0.0 0.00 0.00 0.00 70 1023.3
20260503001552 54 158 0.0 1.0 0.00 0.00 0.00 70 1023.2
20260503001053 54 145 2.0 3.0 0.00 0.00 0.00 70 1023.4
20260503000552 54 158 0.0 1.0 0.00 0.00 0.00 70 1023.3
20260503000052 54 158 3.0 6.0 0.00 0.00 0.00 70 1023.4
20260502235553 54 135 3.0 5.0 0.00 0.00 0.00 70 1023.5
20260502235053 54 158 3.0 5.0 0.00 0.00 0.00 70 1023.6
20260502234553 54 135 2.0 3.0 0.00 0.00 0.00 70 1023.6
20260502234053 54 29 0.0 0.0 0.00 0.00 0.00 69 1023.7
20260502233553 54 135 1.0 3.0 0.00 0.00 0.00 68 1023.7
20260502233052 55 140 1.0 2.0 0.00 0.00 0.00 63 1023.6
20260502232552 55 135 0.0 1.0 0.00 0.00 0.00 62 1023.6
20260502232054 55 141 1.0 2.0 0.00 0.00 0.00 62 1023.7
20260502231553 55 158 2.0 3.0 0.00 0.00 0.00 62 1023.8
20260502231052 56 139 2.0 5.0 0.00 0.00 0.00 62 1023.7
20260502230552 56 149 1.0 3.0 0.00 0.00 0.00 63 1023.8
20260502230053 55 158 0.0 1.0 0.00 0.00 0.00 63 1023.8
20260502225552 55 135 1.0 3.0 0.00 0.00 0.00 63 1023.8
20260502225052 56 158 1.0 3.0 0.00 0.00 0.00 62 1023.9
20260502224553 56 158 1.0 2.0 0.00 0.00 0.00 62 1023.9
20260502224053 57 158 1.0 3.0 0.00 0.00 0.00 61 1023.9
20260502223552 58 158 0.0 1.0 0.00 0.00 0.00 60 1023.9
20260502223053 58 135 2.0 3.0 0.00 0.00 0.00 60 1024.0
20260502222553 57 135 2.0 3.0 0.00 0.00 0.00 61 1024.0
20260502222052 56 135 2.0 3.0 0.00 0.00 0.00 62 1024.0
20260502221552 56 156 0.0 1.0 0.00 0.00 0.00 62 1024.1
20260502221053 56 158 0.0 1.0 0.00 0.00 0.00 62 1024.1
20260502220552 56 140 1.0 3.0 0.00 0.00 0.00 62 1024.2
20260502220052 57 135 1.0 1.0 0.00 0.00 0.00 61 1024.2
20260502215553 57 158 1.0 2.0 0.00 0.00 0.00 61 1024.1